CZ-6A DEB, 54491

Orbit data source: Space-Track

CZ-6A DEB, 54491 is space debris in SSO originally from a launch on Fri, 11 Nov 2022 UTC launched from the Taiyaun Space Center, China (TSC). Debris objects in space refer to the collection of defunct objects orbiting the Earth. Examples of debris include non-operational satellites, rocket bodies, and fragments generated from explosions, collisions, or faulty payload assembly.

Loading next visibility...
Identifier
54491, 2022-151HT
Orbit
SSO
Country
Flag of CNCN / PRC
Related business
Manufacturer
SAST
Mission
Spacecraft
Bus & Motor
Unknown
Mass
Unknown
Launch date (UTC)
2022-11-11 (3 years ago)
Launch vehicle
Unknown
Launch site
Taiyaun Space Center, China (TSC)
Object type
Payload
Rocket body
Debris
Shape & HBR
Unknown shape, 0.2 m
Radar Cross Section
Small (<0.1 m²)

Expand to show TLE details & history
Last TLE update: 6 hours ago

TLE from 6 hours ago
0 CZ-6A DEB
1 54491U 22151HT  26130.44889840  .00000349  00000-0  21938-3 0  9993
2 54491  98.9108 139.1653 0109021  40.9141 320.0146 14.07802027178812
Epoch: 2026-05-10T10:46Z
TLE epoch observation values (Epoch: 2026-05-10T10:46:24.821Z)
Latitude
-0.00006°
Longitude
109.31006°
Altitude
809.623 km
Speed
7.479 km/s
True Right ascension
09h 16m 39s
True Declination
0° 00' 00"
Sunlit
Object was in daylight at epoch
Visualization orbit readout
Latitude
Unknown
Longitude
Unknown
Altitude
Unknown
Speed
Unknown
Apparent Right ascension
Unknown
Apparent Declination
Unknown
Sunlit
N/A
Visualization observer readout
Local Sidereal Time
01:07:01
Azimuth
Unknown
Elevation
Unknown
Doppler factor
Unknown
Orbital elements
Apogee altitude
943.043 km
Perigee altitude
785.132 km
Semi-major axis
7,242.224 km
Eccentricity
0.0109
Inclination
98.9108°
RAAN
139.1653°
Arg. of periapsis
40.9141°
True anomaly
319.20338°
Mean anomaly
320.0146°
Eccentric anomaly
319.60984°
Mean motion
3.52156 °/min
Orbital period
102.23 mins
BSTAR
0.00021938
Loading maneuver chart data...
Computing Atmospheric mass density...
Loading historical data...
Loading historical data...
Loading historical data...
Loading historical data...
Loading historical data...
Loading historical data...
Loading historical data...

Documentation

Showing up to 5 results
|